Merry Christmas and Happy New Year!

 

Sretan Božić i Nova godina!

 

METAR

METAR LDZA 280800Z 24005KT 190V300 CAVOK 27/18 Q1014 BECMG 24010KT =
METAR LDSP 280800Z 20003KT 110V240 CAVOK 32/13 Q1015 NOSIG=
METAR LDDU 280800Z 18004KT 120V220 CAVOK 32/14 Q1016 NOSIG =
METAR LDZD 280800Z 15007KT 110V190 9999 FEW060 32/13 Q1015 NOSIG =
METAR LDPL 280800Z 15005KT 060V220 CAVOK 28/22 Q1015 NOSIG=
METAR LDOS 280800Z 23005KT CAVOK 29/19 Q1014=
METAR LDRI 280800Z VRB03KT 9999 FEW050 28/19 Q1015=

TAF

TAF LDZA 280525Z 2806/2906 24005KT CAVOK
                 TX35/2814Z TN21/2903Z
           BECMG 2808/2810 24010KT
           BECMG 2818/2820 25006KT=         
TAF LDSP 280525Z 2806/2906 VRB02KT CAVOK
                 TX35/2814Z TN23/2903Z
    PROB30 TEMPO 2811/2816 23007KT=         
TAF LDDU 280525Z 2806/2906 08005KT CAVOK
                 TX33/2812Z TN24/2903Z
    PROB30 TEMPO 2812/2818 30008KT=         
TAF LDZD 280525Z 2806/2906 14006KT CAVOK
                 TX34/2813Z TN19/2903Z
           TEMPO 2811/2816 23008KT
           BECMG 2820/2822 VRB02KT=         
TAF LDPL 280525Z 2806/2906 10007KT 9999 FEW050
                 TX31/2813Z TN21/2903Z
           TEMPO 2810/2817 24007KT
    PROB30 TEMPO 2816/2822 -TSRA FEW050CB=         
TAF LDOS 280525Z 2806/2906 17005KT CAVOK
                 TX35/2814Z TN21/2903Z
           TEMPO 2821/2904 30009KT
    PROB30 TEMPO 2820/2900 TS FEW070CB=         
TAF LDRI 280525Z 2806/2906 11006KT 9999 FEW050
                 TX32/2813Z TN22/2903Z
    PROB30 TEMPO 2816/2822 -TSRA FEW050CB=         
TAF LDSB NIL=         
TAF LDLO NIL=

SIGMET

AIRMET

If you cannot log in with your user account, please contact stjepko.jancijev@crocontrol.hr.
Specifically, the website deactivates user accounts that have not been used for more than 365 days, so they must be reactivated.
 

         

      Politika MET podataka      

 

Ukoliko se svojim korisničkim računom ne možete logirati na web stranicu, molim vas da se obratite na stjepko.jancijev@crocontrol.hr.

Naime, web stranica deaktivira korisničke račune koji nisu korišteni više od 365 dana te ih je potrebno ponovno aktivirati.